Time,TemperatureF,DewpointF,PressureIn,WindDirection,WindDirectionDegrees,WindSpeedMPH,WindSpeedGustMPH,Humidity,HourlyPrecipIn,Conditions,Clouds,dailyrainin,SoftwareType,DateUTC
2013-04-27 00:01:00,47.2,37.2,30.14,North,3,0.0,0.0,68,0.00,,,0.00,vanprod-2.3,2013-04-27 05:01:00,
2013-04-27 00:06:00,47.4,36.6,30.14,North,3,0.0,0.0,66,0.00,,,0.00,vanprod-2.3,2013-04-27 05:06:00,
2013-04-27 00:11:00,47.5,36.7,30.14,North,3,0.0,0.0,66,0.00,,,0.00,vanprod-2.3,2013-04-27 05:11:00,
2013-04-27 00:16:00,47.8,37.0,30.14,North,3,0.0,0.0,66,0.00,,,0.00,vanprod-2.3,2013-04-27 05:16:00,
2013-04-27 00:21:00,47.8,37.4,30.14,North,3,0.0,0.0,67,0.00,,,0.00,vanprod-2.3,2013-04-27 05:21:00,
2013-04-27 00:26:00,47.5,37.1,30.14,North,3,0.0,0.0,67,0.00,,,0.00,vanprod-2.3,2013-04-27 05:26:00,
2013-04-27 00:31:00,47.4,37.0,30.14,North,3,0.0,0.0,67,0.00,,,0.00,vanprod-2.3,2013-04-27 05:31:00,
2013-04-27 00:36:00,47.4,37.0,30.14,North,3,0.0,0.0,67,0.00,,,0.00,vanprod-2.3,2013-04-27 05:36:00,
2013-04-27 00:41:00,47.5,37.1,30.14,North,3,0.0,0.0,67,0.00,,,0.00,vanprod-2.3,2013-04-27 05:41:00,
2013-04-27 00:46:00,47.7,37.3,30.14,North,3,0.0,0.0,67,0.00,,,0.00,vanprod-2.3,2013-04-27 05:46:00,
2013-04-27 00:51:00,47.7,37.3,30.14,North,3,0.0,0.0,67,0.00,,,0.00,vanprod-2.3,2013-04-27 05:51:00,
2013-04-27 00:56:00,47.7,37.3,30.14,North,3,1.0,1.0,67,0.00,,,0.00,vanprod-2.3,2013-04-27 05:56:00,
2013-04-27 01:01:00,47.7,37.3,30.14,North,3,0.0,0.0,67,0.00,,,0.00,vanprod-2.3,2013-04-27 06:01:00,
2013-04-27 01:06:00,47.5,37.5,30.14,North,3,0.0,0.0,68,0.00,,,0.00,vanprod-2.3,2013-04-27 06:06:00,
2013-04-27 01:11:00,47.2,37.2,30.14,North,3,0.0,0.0,68,0.00,,,0.00,vanprod-2.3,2013-04-27 06:11:00,
2013-04-27 01:16:00,46.9,37.3,30.14,North,3,0.0,0.0,69,0.00,,,0.00,vanprod-2.3,2013-04-27 06:16:00,
2013-04-27 01:21:00,46.5,37.3,30.14,North,3,0.0,0.0,70,0.00,,,0.00,vanprod-2.3,2013-04-27 06:21:00,
2013-04-27 01:26:00,46.5,37.3,30.14,North,3,0.0,0.0,70,0.00,,,0.00,vanprod-2.3,2013-04-27 06:26:00,
2013-04-27 01:31:00,46.3,37.4,30.14,North,3,0.0,0.0,71,0.00,,,0.00,vanprod-2.3,2013-04-27 06:31:00,
2013-04-27 01:36:00,46.2,37.3,30.14,North,3,0.0,0.0,71,0.00,,,0.00,vanprod-2.3,2013-04-27 06:36:00,
2013-04-27 01:41:00,45.9,37.0,30.14,North,3,0.0,0.0,71,0.00,,,0.00,vanprod-2.3,2013-04-27 06:41:00,
2013-04-27 01:46:00,46.0,37.1,30.14,North,3,0.0,0.0,71,0.00,,,0.00,vanprod-2.3,2013-04-27 06:46:00,
2013-04-27 01:51:00,45.9,37.4,30.14,North,3,0.0,0.0,72,0.00,,,0.00,vanprod-2.3,2013-04-27 06:51:00,
2013-04-27 01:56:00,45.7,37.2,30.14,North,3,0.0,0.0,72,0.00,,,0.00,vanprod-2.3,2013-04-27 06:56:00,
2013-04-27 02:01:00,45.5,37.4,30.14,North,3,0.0,0.0,73,0.00,,,0.00,vanprod-2.3,2013-04-27 07:01:00,
2013-04-27 02:06:00,45.3,37.2,30.14,North,3,0.0,0.0,73,0.00,,,0.00,vanprod-2.3,2013-04-27 07:06:00,
2013-04-27 02:11:00,45.0,37.2,30.14,North,3,0.0,0.0,74,0.00,,,0.00,vanprod-2.3,2013-04-27 07:11:00,
2013-04-27 02:16:00,44.9,37.1,30.14,North,3,0.0,0.0,74,0.00,,,0.00,vanprod-2.3,2013-04-27 07:16:00,
2013-04-27 02:21:00,44.7,36.9,30.14,North,3,0.0,0.0,74,0.00,,,0.00,vanprod-2.3,2013-04-27 07:21:00,
2013-04-27 02:26:00,44.6,36.8,30.14,North,3,0.0,0.0,74,0.00,,,0.00,vanprod-2.3,2013-04-27 07:26:00,
2013-04-27 02:31:00,44.4,36.6,30.14,North,3,1.0,1.0,74,0.00,,,0.00,vanprod-2.3,2013-04-27 07:31:00,
2013-04-27 02:36:00,44.1,36.7,30.14,North,3,0.0,0.0,75,0.00,,,0.00,vanprod-2.3,2013-04-27 07:36:00,
2013-04-27 02:41:00,44.0,36.6,30.13,North,3,0.0,0.0,75,0.00,,,0.00,vanprod-2.3,2013-04-27 07:41:00,
2013-04-27 02:46:00,43.7,36.3,30.13,North,3,0.0,0.0,75,0.00,,,0.00,vanprod-2.3,2013-04-27 07:46:00,
2013-04-27 02:51:00,43.4,36.0,30.13,North,3,0.0,0.0,75,0.00,,,0.00,vanprod-2.3,2013-04-27 07:51:00,
2013-04-27 02:56:00,43.3,36.3,30.13,North,3,0.0,0.0,76,0.00,,,0.00,vanprod-2.3,2013-04-27 07:56:00,
2013-04-27 03:01:00,43.1,35.7,30.12,North,3,0.0,0.0,75,0.00,,,0.00,vanprod-2.3,2013-04-27 08:01:00,
2013-04-27 03:06:00,43.0,36.0,30.12,North,3,0.0,0.0,76,0.00,,,0.00,vanprod-2.3,2013-04-27 08:06:00,
2013-04-27 03:11:00,43.0,36.0,30.12,North,3,0.0,0.0,76,0.00,,,0.00,vanprod-2.3,2013-04-27 08:11:00,
2013-04-27 03:16:00,42.8,35.8,30.12,North,3,0.0,0.0,76,0.00,,,0.00,vanprod-2.3,2013-04-27 08:16:00,
2013-04-27 03:21:00,42.6,35.6,30.12,North,3,0.0,0.0,76,0.00,,,0.00,vanprod-2.3,2013-04-27 08:21:00,
2013-04-27 03:26:00,42.4,35.4,30.12,North,3,0.0,0.0,76,0.00,,,0.00,vanprod-2.3,2013-04-27 08:26:00,
2013-04-27 03:31:00,42.3,35.3,30.11,North,3,0.0,0.0,76,0.00,,,0.00,vanprod-2.3,2013-04-27 08:31:00,
2013-04-27 03:36:00,42.1,35.4,30.11,North,3,0.0,0.0,77,0.00,,,0.00,vanprod-2.3,2013-04-27 08:36:00,
2013-04-27 03:41:00,42.1,35.1,30.11,North,3,0.0,0.0,76,0.00,,,0.00,vanprod-2.3,2013-04-27 08:41:00,
2013-04-27 03:46:00,42.0,35.0,30.11,North,3,0.0,0.0,76,0.00,,,0.00,vanprod-2.3,2013-04-27 08:46:00,
2013-04-27 03:51:00,41.8,34.8,30.11,North,3,0.0,0.0,76,0.00,,,0.00,vanprod-2.3,2013-04-27 08:51:00,
2013-04-27 03:56:00,41.8,34.8,30.11,North,3,0.0,0.0,76,0.00,,,0.00,vanprod-2.3,2013-04-27 08:56:00,
2013-04-27 04:01:00,41.6,34.9,30.11,North,3,0.0,0.0,77,0.00,,,0.00,vanprod-2.3,2013-04-27 09:01:00,
2013-04-27 04:06:00,41.4,34.7,30.11,North,3,0.0,0.0,77,0.00,,,0.00,vanprod-2.3,2013-04-27 09:06:00,
2013-04-27 04:11:00,41.1,34.5,30.11,North,3,0.0,0.0,77,0.00,,,0.00,vanprod-2.3,2013-04-27 09:11:00,
2013-04-27 04:16:00,41.0,34.7,30.11,North,3,0.0,0.0,78,0.00,,,0.00,vanprod-2.3,2013-04-27 09:16:00,
2013-04-27 04:21:00,40.8,34.5,30.11,North,3,0.0,0.0,78,0.00,,,0.00,vanprod-2.3,2013-04-27 09:21:00,
2013-04-27 04:26:00,40.7,34.4,30.11,North,3,0.0,0.0,78,0.00,,,0.00,vanprod-2.3,2013-04-27 09:26:00,
2013-04-27 04:31:00,40.7,34.7,30.11,North,3,0.0,0.0,79,0.00,,,0.00,vanprod-2.3,2013-04-27 09:31:00,
2013-04-27 04:36:00,40.6,34.6,30.10,North,3,0.0,0.0,79,0.00,,,0.00,vanprod-2.3,2013-04-27 09:36:00,
2013-04-27 04:41:00,40.4,34.4,30.10,North,3,0.0,0.0,79,0.00,,,0.00,vanprod-2.3,2013-04-27 09:41:00,
2013-04-27 04:46:00,40.3,34.3,30.10,North,3,0.0,0.0,79,0.00,,,0.00,vanprod-2.3,2013-04-27 09:46:00,
2013-04-27 04:51:00,40.4,34.4,30.10,North,3,0.0,0.0,79,0.00,,,0.00,vanprod-2.3,2013-04-27 09:51:00,
2013-04-27 04:56:00,40.6,34.3,30.10,North,3,0.0,0.0,78,0.00,,,0.00,vanprod-2.3,2013-04-27 09:56:00,
2013-04-27 05:01:00,40.8,34.2,30.10,North,3,0.0,0.0,77,0.00,,,0.00,vanprod-2.3,2013-04-27 10:01:00,
2013-04-27 05:06:00,40.8,34.2,30.10,North,3,0.0,0.0,77,0.00,,,0.00,vanprod-2.3,2013-04-27 10:06:00,
2013-04-27 05:11:00,41.0,34.4,30.09,North,3,0.0,0.0,77,0.00,,,0.00,vanprod-2.3,2013-04-27 10:11:00,
2013-04-27 05:16:00,41.1,34.1,30.09,North,3,0.0,0.0,76,0.00,,,0.00,vanprod-2.3,2013-04-27 10:16:00,
2013-04-27 05:21:00,41.0,34.0,30.09,North,3,0.0,0.0,76,0.00,,,0.00,vanprod-2.3,2013-04-27 10:21:00,
2013-04-27 05:26:00,40.8,34.2,30.09,North,3,0.0,2.0,77,0.00,,,0.00,vanprod-2.3,2013-04-27 10:26:00,
2013-04-27 05:31:00,39.3,34.3,30.09,North,3,0.0,1.0,82,0.00,,,0.00,vanprod-2.3,2013-04-27 10:31:00,
2013-04-27 05:36:00,38.6,34.2,30.09,North,3,0.0,1.0,84,0.00,,,0.00,vanprod-2.3,2013-04-27 10:36:00,
2013-04-27 05:41:00,38.1,34.0,30.09,North,3,0.0,0.0,85,0.00,,,0.00,vanprod-2.3,2013-04-27 10:41:00,
2013-04-27 05:46:00,37.8,33.7,30.09,North,3,1.0,1.0,85,0.00,,,0.00,vanprod-2.3,2013-04-27 10:46:00,
2013-04-27 05:51:00,37.8,33.7,30.09,North,3,1.0,2.0,85,0.00,,,0.00,vanprod-2.3,2013-04-27 10:51:00,
2013-04-27 05:56:00,37.7,33.6,30.09,North,3,1.0,2.0,85,0.00,,,0.00,vanprod-2.3,2013-04-27 10:56:00,
2013-04-27 06:01:00,37.8,33.4,30.09,North,3,0.0,0.0,84,0.00,,,0.00,vanprod-2.3,2013-04-27 11:01:00,
2013-04-27 06:06:00,37.8,33.4,30.09,North,3,0.0,0.0,84,0.00,,,0.00,vanprod-2.3,2013-04-27 11:06:00,
2013-04-27 06:11:00,38.0,33.3,30.09,North,3,0.0,0.0,83,0.00,,,0.00,vanprod-2.3,2013-04-27 11:11:00,
2013-04-27 06:16:00,38.0,33.0,30.09,North,3,0.0,0.0,82,0.00,,,0.00,vanprod-2.3,2013-04-27 11:16:00,
2013-04-27 06:21:00,37.8,32.8,30.09,North,3,0.0,0.0,82,0.00,,,0.00,vanprod-2.3,2013-04-27 11:21:00,
2013-04-27 06:26:00,37.8,33.1,30.09,North,3,0.0,2.0,83,0.00,,,0.00,vanprod-2.3,2013-04-27 11:26:00,
2013-04-27 06:31:00,38.1,32.8,30.09,North,3,1.0,1.0,81,0.00,,,0.00,vanprod-2.3,2013-04-27 11:31:00,
2013-04-27 06:36:00,38.0,32.7,30.09,North,3,0.0,0.0,81,0.00,,,0.00,vanprod-2.3,2013-04-27 11:36:00,
2013-04-27 06:41:00,37.7,32.7,30.09,North,3,0.0,0.0,82,0.00,,,0.00,vanprod-2.3,2013-04-27 11:41:00,
2013-04-27 06:46:00,37.8,32.8,30.09,North,3,0.0,0.0,82,0.00,,,0.00,vanprod-2.3,2013-04-27 11:46:00,
2013-04-27 06:51:00,38.3,33.3,30.09,North,3,0.0,2.0,82,0.00,,,0.00,vanprod-2.3,2013-04-27 11:51:00,
2013-04-27 06:56:00,38.7,33.7,30.09,North,3,1.0,0.0,82,0.00,,,0.00,vanprod-2.3,2013-04-27 11:56:00,
2013-04-27 07:01:00,39.0,33.7,30.09,North,3,2.0,4.0,81,0.00,,,0.00,vanprod-2.3,2013-04-27 12:01:00,
2013-04-27 07:06:00,39.3,33.7,30.09,North,3,2.0,3.0,80,0.00,,,0.00,vanprod-2.3,2013-04-27 12:06:00,
2013-04-27 07:11:00,39.4,33.4,30.09,North,3,2.0,2.0,79,0.00,,,0.00,vanprod-2.3,2013-04-27 12:11:00,
2013-04-27 07:16:00,39.7,33.4,30.09,North,3,3.0,5.0,78,0.00,,,0.00,vanprod-2.3,2013-04-27 12:16:00,
2013-04-27 07:21:00,40.3,33.7,30.09,North,3,2.0,5.0,77,0.00,,,0.00,vanprod-2.3,2013-04-27 12:21:00,
2013-04-27 07:26:00,40.7,33.4,30.09,North,3,2.0,2.0,75,0.00,,,0.00,vanprod-2.3,2013-04-27 12:26:00,
2013-04-27 07:31:00,41.1,33.5,30.09,North,3,2.0,2.0,74,0.00,,,0.00,vanprod-2.3,2013-04-27 12:31:00,
2013-04-27 07:36:00,41.8,33.8,30.09,North,3,2.0,2.0,73,0.00,,,0.00,vanprod-2.3,2013-04-27 12:36:00,
2013-04-27 07:41:00,42.6,34.2,30.09,North,3,2.0,2.0,72,0.00,,,0.00,vanprod-2.3,2013-04-27 12:41:00,
2013-04-27 07:46:00,43.4,33.9,30.09,North,3,3.0,3.0,69,0.00,,,0.00,vanprod-2.3,2013-04-27 12:46:00,
2013-04-27 07:51:00,44.1,34.2,30.09,North,3,2.0,2.0,68,0.00,,,0.00,vanprod-2.3,2013-04-27 12:51:00,
2013-04-27 07:56:00,44.9,34.2,30.09,North,3,3.0,5.0,66,0.00,,,0.00,vanprod-2.3,2013-04-27 12:56:00,
2013-04-27 08:01:00,45.6,34.5,30.09,North,3,3.0,3.0,65,0.00,,,0.00,vanprod-2.3,2013-04-27 13:01:00,
2013-04-27 08:06:00,45.9,34.8,30.09,North,3,1.0,3.0,65,0.00,,,0.00,vanprod-2.3,2013-04-27 13:06:00,
2013-04-27 08:11:00,46.2,35.1,30.09,North,3,2.0,2.0,65,0.00,,,0.00,vanprod-2.3,2013-04-27 13:11:00,
2013-04-27 08:16:00,46.6,35.5,30.09,North,3,1.0,2.0,65,0.00,,,0.00,vanprod-2.3,2013-04-27 13:16:00,
2013-04-27 08:21:00,47.1,35.6,30.09,North,3,2.0,5.0,64,0.00,,,0.00,vanprod-2.3,2013-04-27 13:21:00,
2013-04-27 08:26:00,47.5,35.5,30.09,North,3,3.0,3.0,63,0.00,,,0.00,vanprod-2.3,2013-04-27 13:26:00,
2013-04-27 08:31:00,47.8,36.2,30.09,North,3,3.0,3.0,64,0.00,,,0.00,vanprod-2.3,2013-04-27 13:31:00,
2013-04-27 08:36:00,48.1,36.5,30.09,North,3,2.0,2.0,64,0.00,,,0.00,vanprod-2.3,2013-04-27 13:36:00,
2013-04-27 08:41:00,48.6,37.0,30.09,North,3,3.0,3.0,64,0.00,,,0.00,vanprod-2.3,2013-04-27 13:41:00,
2013-04-27 08:48:00,49.1,37.9,30.09,North,3,2.0,3.0,65,0.00,,,0.00,vanprod-2.3,2013-04-27 13:48:00,
2013-04-27 08:53:00,49.9,37.4,30.09,North,3,2.0,3.0,62,0.00,,,0.00,vanprod-2.3,2013-04-27 13:53:00,
2013-04-27 08:58:00,50.5,37.6,30.09,North,3,1.0,2.0,61,0.00,,,0.00,vanprod-2.3,2013-04-27 13:58:00,
2013-04-27 09:03:00,51.2,37.8,30.09,North,3,1.0,0.0,60,0.00,,,0.00,vanprod-2.3,2013-04-27 14:03:00,
2013-04-27 09:08:00,52.1,37.3,30.09,North,3,3.0,5.0,57,0.00,,,0.00,vanprod-2.3,2013-04-27 14:08:00,
2013-04-27 09:13:00,53.0,37.3,30.08,North,3,3.0,5.0,55,0.00,,,0.00,vanprod-2.3,2013-04-27 14:13:00,
2013-04-27 09:18:00,54.0,38.2,30.08,North,3,0.0,2.0,55,0.00,,,0.00,vanprod-2.3,2013-04-27 14:18:00,
2013-04-27 09:23:00,54.8,38.0,30.08,North,1,4.0,7.0,53,0.00,,,0.00,vanprod-2.3,2013-04-27 14:23:00,
2013-04-27 09:28:00,55.5,38.2,30.08,North,359,2.0,3.0,52,0.00,,,0.00,vanprod-2.3,2013-04-27 14:28:00,
2013-04-27 09:33:00,56.2,38.3,30.08,North,359,2.0,5.0,51,0.00,,,0.00,vanprod-2.3,2013-04-27 14:33:00,
2013-04-27 09:38:00,57.0,39.1,30.08,North,359,3.0,3.0,51,0.00,,,0.00,vanprod-2.3,2013-04-27 14:38:00,
2013-04-27 09:43:00,57.8,39.3,30.07,North,357,3.0,3.0,50,0.00,,,0.00,vanprod-2.3,2013-04-27 14:43:00,
2013-04-27 09:48:00,58.4,39.3,30.07,NNW,333,1.0,3.0,49,0.00,,,0.00,vanprod-2.3,2013-04-27 14:48:00,
2013-04-27 09:53:00,58.8,40.2,30.07,NNW,332,1.0,1.0,50,0.00,,,0.00,vanprod-2.3,2013-04-27 14:53:00,
2013-04-27 09:58:00,59.7,40.0,30.07,West,271,3.0,6.0,48,0.00,,,0.00,vanprod-2.3,2013-04-27 14:58:00,
2013-04-27 10:03:00,60.2,40.5,30.07,WSW,247,2.0,2.0,48,0.00,,,0.00,vanprod-2.3,2013-04-27 15:03:00,
2013-04-27 10:08:00,61.0,40.1,30.07,WSW,247,4.0,8.0,46,0.00,,,0.00,vanprod-2.3,2013-04-27 15:08:00,
2013-04-27 10:13:00,61.1,40.2,30.07,SW,229,4.0,4.0,46,0.00,,,0.00,vanprod-2.3,2013-04-27 15:13:00,
2013-04-27 10:18:00,61.8,40.3,30.07,SW,229,3.0,8.0,45,0.00,,,0.00,vanprod-2.3,2013-04-27 15:18:00,
2013-04-27 10:23:00,62.6,39.8,30.07,SW,229,3.0,6.0,43,0.00,,,0.00,vanprod-2.3,2013-04-27 15:23:00,
2013-04-27 10:28:00,63.4,41.1,30.06,SW,229,4.0,7.0,44,0.00,,,0.00,vanprod-2.3,2013-04-27 15:28:00,
2013-04-27 10:33:00,63.7,38.9,30.06,SW,229,5.0,6.0,40,0.00,,,0.00,vanprod-2.3,2013-04-27 15:33:00,
2013-04-27 10:38:00,64.0,40.5,30.06,SW,229,3.0,3.0,42,0.00,,,0.00,vanprod-2.3,2013-04-27 15:38:00,
2013-04-27 10:43:00,64.7,40.5,30.06,SW,229,4.0,6.0,41,0.00,,,0.00,vanprod-2.3,2013-04-27 15:43:00,
2013-04-27 10:48:00,65.0,39.5,30.06,SW,222,2.0,4.0,39,0.00,,,0.00,vanprod-2.3,2013-04-27 15:48:00,
2013-04-27 10:53:00,65.6,39.3,30.06,SW,222,5.0,8.0,38,0.00,,,0.00,vanprod-2.3,2013-04-27 15:53:00,
2013-04-27 10:58:00,65.6,39.3,30.06,South,191,4.0,7.0,38,0.00,,,0.00,vanprod-2.3,2013-04-27 15:58:00,
2013-04-27 11:03:00,66.3,40.0,30.06,South,191,4.0,7.0,38,0.00,,,0.00,vanprod-2.3,2013-04-27 16:03:00,
2013-04-27 11:08:00,66.6,38.8,30.06,South,191,4.0,7.0,36,0.00,,,0.00,vanprod-2.3,2013-04-27 16:08:00,
2013-04-27 11:13:00,66.8,38.3,30.06,South,190,5.0,7.0,35,0.00,,,0.00,vanprod-2.3,2013-04-27 16:13:00,
2013-04-27 11:18:00,66.8,36.8,30.06,South,179,5.0,5.0,33,0.00,,,0.00,vanprod-2.3,2013-04-27 16:18:00,
2013-04-27 11:23:00,67.3,38.0,30.05,South,179,5.0,5.0,34,0.00,,,0.00,vanprod-2.3,2013-04-27 16:23:00,
2013-04-27 11:28:00,67.8,37.7,30.05,South,179,4.0,11.0,33,0.00,,,0.00,vanprod-2.3,2013-04-27 16:28:00,
2013-04-27 11:33:00,68.3,38.1,30.05,South,179,1.0,2.0,33,0.00,,,0.00,vanprod-2.3,2013-04-27 16:33:00,
2013-04-27 11:38:00,68.8,37.0,30.05,SSW,205,4.0,6.0,31,0.00,,,0.00,vanprod-2.3,2013-04-27 16:38:00,
2013-04-27 11:43:00,68.9,36.2,30.06,SSW,193,4.0,5.0,30,0.00,,,0.00,vanprod-2.3,2013-04-27 16:43:00,
2013-04-27 11:48:00,68.9,37.0,30.05,SSW,206,4.0,6.0,31,0.00,,,0.00,vanprod-2.3,2013-04-27 16:48:00,
2013-04-27 11:53:00,68.9,37.0,30.05,SSW,210,4.0,13.0,31,0.00,,,0.00,vanprod-2.3,2013-04-27 16:53:00,
2013-04-27 11:58:00,68.9,37.0,30.05,SW,223,2.0,2.0,31,0.00,,,0.00,vanprod-2.3,2013-04-27 16:58:00,
2013-04-27 12:03:00,69.1,35.5,30.05,SW,217,5.0,6.0,29,0.00,,,0.00,vanprod-2.3,2013-04-27 17:03:00,
2013-04-27 12:08:00,69.8,35.3,30.05,SSW,209,5.0,7.0,28,0.00,,,0.00,vanprod-2.3,2013-04-27 17:08:00,
2013-04-27 12:13:00,69.1,35.5,30.05,SSW,213,4.0,4.0,29,0.00,,,0.00,vanprod-2.3,2013-04-27 17:13:00,
2013-04-27 12:18:00,69.8,35.3,30.04,SSW,213,3.0,5.0,28,0.00,,,0.00,vanprod-2.3,2013-04-27 17:18:00,
2013-04-27 12:23:00,70.4,34.9,30.04,SW,216,6.0,6.0,27,0.00,,,0.00,vanprod-2.3,2013-04-27 17:23:00,
2013-04-27 12:28:00,70.3,34.8,30.04,SSW,213,4.0,4.0,27,0.00,,,0.00,vanprod-2.3,2013-04-27 17:28:00,
2013-04-27 12:33:00,70.6,34.1,30.04,SW,222,6.0,10.0,26,0.00,,,0.00,vanprod-2.3,2013-04-27 17:33:00,
2013-04-27 12:38:00,70.4,34.9,30.04,SW,229,2.0,5.0,27,0.00,,,0.00,vanprod-2.3,2013-04-27 17:38:00,
2013-04-27 12:43:00,70.4,34.9,30.03,SSW,212,3.0,3.0,27,0.00,,,0.00,vanprod-2.3,2013-04-27 17:43:00,
2013-04-27 12:48:00,70.8,34.3,30.03,SW,217,6.0,7.0,26,0.00,,,0.00,vanprod-2.3,2013-04-27 17:48:00,
2013-04-27 12:53:00,71.1,34.5,30.03,SSW,213,5.0,7.0,26,0.00,,,0.00,vanprod-2.3,2013-04-27 17:53:00,
2013-04-27 12:58:00,71.3,35.6,30.02,South,169,7.0,12.0,27,0.00,,,0.00,vanprod-2.3,2013-04-27 17:58:00,
2013-04-27 13:03:00,71.5,34.8,30.02,South,172,5.0,7.0,26,0.00,,,0.00,vanprod-2.3,2013-04-27 18:03:00,
2013-04-27 13:08:00,71.8,36.1,30.01,South,176,4.0,5.0,27,0.00,,,0.00,vanprod-2.3,2013-04-27 18:08:00,
2013-04-27 13:13:00,72.3,36.5,30.01,SSW,203,5.0,5.0,27,0.00,,,0.00,vanprod-2.3,2013-04-27 18:13:00,
2013-04-27 13:18:00,72.7,36.8,30.01,SSW,202,3.0,4.0,27,0.00,,,0.00,vanprod-2.3,2013-04-27 18:18:00,
2013-04-27 13:23:00,72.8,36.9,30.01,South,187,8.0,9.0,27,0.00,,,0.00,vanprod-2.3,2013-04-27 18:23:00,
2013-04-27 13:28:00,72.5,37.6,30.01,SSW,198,4.0,6.0,28,0.00,,,0.00,vanprod-2.3,2013-04-27 18:28:00,
2013-04-27 13:33:00,72.2,37.3,30.01,SW,224,5.0,5.0,28,0.00,,,0.00,vanprod-2.3,2013-04-27 18:33:00,
2013-04-27 13:38:00,71.6,36.8,30.00,WSW,247,8.0,8.0,28,0.00,,,0.00,vanprod-2.3,2013-04-27 18:38:00,
2013-04-27 13:43:00,72.2,37.3,30.00,SW,228,5.0,12.0,28,0.00,,,0.00,vanprod-2.3,2013-04-27 18:43:00,
2013-04-27 13:48:00,72.7,36.8,30.00,South,190,6.0,12.0,27,0.00,,,0.00,vanprod-2.3,2013-04-27 18:48:00,
2013-04-27 13:53:00,72.5,36.7,30.00,South,188,5.0,7.0,27,0.00,,,0.00,vanprod-2.3,2013-04-27 18:53:00,
2013-04-27 13:58:00,73.0,37.1,30.00,South,183,6.0,6.0,27,0.00,,,0.00,vanprod-2.3,2013-04-27 18:58:00,
2013-04-27 14:03:00,73.0,37.1,30.00,South,182,4.0,7.0,27,0.00,,,0.00,vanprod-2.3,2013-04-27 19:03:00,
2013-04-27 14:08:00,72.8,36.0,30.00,SW,221,6.0,6.0,26,0.00,,,0.00,vanprod-2.3,2013-04-27 19:08:00,
2013-04-27 14:13:00,72.7,37.7,30.00,SW,223,2.0,2.0,28,0.00,,,0.00,vanprod-2.3,2013-04-27 19:13:00,
2013-04-27 14:18:00,73.4,36.5,29.99,SSW,206,5.0,8.0,26,0.00,,,0.00,vanprod-2.3,2013-04-27 19:18:00,
2013-04-27 14:23:00,73.2,36.3,29.99,SSW,208,5.0,6.0,26,0.00,,,0.00,vanprod-2.3,2013-04-27 19:23:00,
2013-04-27 14:28:00,73.0,36.1,29.99,SSW,196,6.0,6.0,26,0.00,,,0.00,vanprod-2.3,2013-04-27 19:28:00,
2013-04-27 14:33:00,73.2,36.3,29.98,SW,223,5.0,5.0,26,0.00,,,0.00,vanprod-2.3,2013-04-27 19:33:00,
2013-04-27 14:38:00,73.0,36.1,29.98,SW,223,4.0,5.0,26,0.00,,,0.00,vanprod-2.3,2013-04-27 19:38:00,
2013-04-27 14:43:00,73.2,36.3,29.98,SSW,212,6.0,9.0,26,0.00,,,0.00,vanprod-2.3,2013-04-27 19:43:00,
2013-04-27 14:48:00,73.2,36.3,29.98,SW,215,3.0,3.0,26,0.00,,,0.00,vanprod-2.3,2013-04-27 19:48:00,
2013-04-27 14:53:00,73.4,36.5,29.98,SW,218,6.0,8.0,26,0.00,,,0.00,vanprod-2.3,2013-04-27 19:53:00,
2013-04-27 14:58:00,73.4,36.5,29.98,SSW,192,7.0,8.0,26,0.00,,,0.00,vanprod-2.3,2013-04-27 19:58:00,
2013-04-27 15:03:00,73.5,35.6,29.97,SSW,202,4.0,10.0,25,0.00,,,0.00,vanprod-2.3,2013-04-27 20:03:00,
2013-04-27 15:08:00,73.4,35.5,29.96,SSW,198,5.0,6.0,25,0.00,,,0.00,vanprod-2.3,2013-04-27 20:08:00,
2013-04-27 15:13:00,73.4,36.5,29.96,South,191,6.0,8.0,26,0.00,,,0.00,vanprod-2.3,2013-04-27 20:13:00,
2013-04-27 15:18:00,73.5,35.6,29.96,South,190,5.0,13.0,25,0.00,,,0.00,vanprod-2.3,2013-04-27 20:18:00,
2013-04-27 15:23:00,73.7,35.7,29.96,SSW,210,3.0,11.0,25,0.00,,,0.00,vanprod-2.3,2013-04-27 20:23:00,
2013-04-27 15:28:00,73.9,35.9,29.95,SSW,206,7.0,11.0,25,0.00,,,0.00,vanprod-2.3,2013-04-27 20:28:00,
2013-04-27 15:33:00,73.9,36.9,29.95,SSW,200,6.0,8.0,26,0.00,,,0.00,vanprod-2.3,2013-04-27 20:33:00,
2013-04-27 15:38:00,74.4,36.3,29.95,SSW,196,6.0,12.0,25,0.00,,,0.00,vanprod-2.3,2013-04-27 20:38:00,
2013-04-27 15:43:00,73.9,35.9,29.95,South,189,4.0,6.0,25,0.00,,,0.00,vanprod-2.3,2013-04-27 20:43:00,
2013-04-27 15:48:00,73.5,35.6,29.95,South,189,4.0,5.0,25,0.00,,,0.00,vanprod-2.3,2013-04-27 20:48:00,
2013-04-27 15:53:00,74.1,36.1,29.95,South,189,3.0,3.0,25,0.00,,,0.00,vanprod-2.3,2013-04-27 20:53:00,
2013-04-27 15:58:00,74.4,36.3,29.95,SSW,202,5.0,9.0,25,0.00,,,0.00,vanprod-2.3,2013-04-27 20:58:00,
2013-04-27 16:03:00,74.6,35.5,29.95,SSW,213,4.0,7.0,24,0.00,,,0.00,vanprod-2.3,2013-04-27 21:03:00,
2013-04-27 16:08:00,74.8,36.7,29.94,SSW,213,3.0,7.0,25,0.00,,,0.00,vanprod-2.3,2013-04-27 21:08:00,
2013-04-27 16:13:00,74.8,37.7,29.94,SSW,210,2.0,3.0,26,0.00,,,0.00,vanprod-2.3,2013-04-27 21:13:00,
2013-04-27 16:18:00,74.8,35.6,29.94,SSW,206,4.0,6.0,24,0.00,,,0.00,vanprod-2.3,2013-04-27 21:18:00,
2013-04-27 16:23:00,74.9,36.7,29.94,SSW,196,4.0,6.0,25,0.00,,,0.00,vanprod-2.3,2013-04-27 21:23:00,
2013-04-27 16:28:00,74.6,35.5,29.93,SSW,201,4.0,4.0,24,0.00,,,0.00,vanprod-2.3,2013-04-27 21:28:00,
2013-04-27 16:33:00,74.4,35.3,29.93,SSW,200,4.0,6.0,24,0.00,,,0.00,vanprod-2.3,2013-04-27 21:33:00,
2013-04-27 16:38:00,74.8,35.6,29.93,SSW,200,2.0,6.0,24,0.00,,,0.00,vanprod-2.3,2013-04-27 21:38:00,
2013-04-27 16:43:00,74.4,35.3,29.93,SW,220,6.0,10.0,24,0.00,,,0.00,vanprod-2.3,2013-04-27 21:43:00,
2013-04-27 16:48:00,74.2,35.1,29.93,SW,220,5.0,6.0,24,0.00,,,0.00,vanprod-2.3,2013-04-27 21:48:00,
2013-04-27 16:53:00,74.2,35.1,29.93,SW,230,3.0,3.0,24,0.00,,,0.00,vanprod-2.3,2013-04-27 21:53:00,
2013-04-27 16:58:00,74.8,36.7,29.93,SW,229,2.0,2.0,25,0.00,,,0.00,vanprod-2.3,2013-04-27 21:58:00,
2013-04-27 17:03:00,75.1,36.9,29.93,SW,229,2.0,3.0,25,0.00,,,0.00,vanprod-2.3,2013-04-27 22:03:00,
2013-04-27 17:08:00,75.1,34.8,29.93,SW,229,2.0,2.0,23,0.00,,,0.00,vanprod-2.3,2013-04-27 22:08:00,
2013-04-27 17:13:00,74.6,35.5,29.92,SW,226,1.0,5.0,24,0.00,,,0.00,vanprod-2.3,2013-04-27 22:13:00,
2013-04-27 17:18:00,74.8,35.6,29.92,SW,226,1.0,3.0,24,0.00,,,0.00,vanprod-2.3,2013-04-27 22:18:00,
2013-04-27 17:23:00,74.6,35.5,29.92,SW,226,2.0,2.0,24,0.00,,,0.00,vanprod-2.3,2013-04-27 22:23:00,
2013-04-27 17:28:00,74.8,37.7,29.92,SW,226,1.0,2.0,26,0.00,,,0.00,vanprod-2.3,2013-04-27 22:28:00,
2013-04-27 17:33:00,74.8,34.6,29.92,WSW,239,5.0,6.0,23,0.00,,,0.00,vanprod-2.3,2013-04-27 22:33:00,
2013-04-27 17:38:00,74.4,34.2,29.92,WSW,237,5.0,7.0,23,0.00,,,0.00,vanprod-2.3,2013-04-27 22:38:00,
2013-04-27 17:43:00,74.2,35.1,29.92,WSW,237,4.0,7.0,24,0.00,,,0.00,vanprod-2.3,2013-04-27 22:43:00,
2013-04-27 17:48:00,74.4,34.2,29.92,WSW,237,3.0,6.0,23,0.00,,,0.00,vanprod-2.3,2013-04-27 22:48:00,
2013-04-27 17:53:00,74.4,35.3,29.91,SW,236,4.0,6.0,24,0.00,,,0.00,vanprod-2.3,2013-04-27 22:53:00,
2013-04-27 17:58:00,74.6,35.5,29.91,SW,236,2.0,6.0,24,0.00,,,0.00,vanprod-2.3,2013-04-27 22:58:00,
2013-04-27 18:03:00,74.4,36.3,29.91,SW,233,4.0,4.0,25,0.00,,,0.00,vanprod-2.3,2013-04-27 23:03:00,
2013-04-27 18:08:00,74.2,36.2,29.91,SW,233,3.0,3.0,25,0.00,,,0.00,vanprod-2.3,2013-04-27 23:08:00,
2013-04-27 18:13:00,74.1,36.1,29.90,SW,233,3.0,8.0,25,0.00,,,0.00,vanprod-2.3,2013-04-27 23:13:00,
2013-04-27 18:18:00,73.9,35.9,29.90,SW,227,3.0,7.0,25,0.00,,,0.00,vanprod-2.3,2013-04-27 23:18:00,
2013-04-27 18:23:00,73.4,35.5,29.90,SSW,202,4.0,4.0,25,0.00,,,0.00,vanprod-2.3,2013-04-27 23:23:00,
2013-04-27 18:28:00,73.2,35.3,29.90,SSW,200,3.0,5.0,25,0.00,,,0.00,vanprod-2.3,2013-04-27 23:28:00,
2013-04-27 18:33:00,73.0,34.1,29.90,SSW,198,6.0,6.0,24,0.00,,,0.00,vanprod-2.3,2013-04-27 23:33:00,
2013-04-27 18:38:00,73.0,35.1,29.89,SSW,196,4.0,5.0,25,0.00,,,0.00,vanprod-2.3,2013-04-27 23:38:00,
2013-04-27 18:43:00,73.0,35.1,29.89,SSW,196,4.0,5.0,25,0.00,,,0.00,vanprod-2.3,2013-04-27 23:43:00,
2013-04-27 18:48:00,72.8,36.0,29.89,SSW,196,2.0,3.0,26,0.00,,,0.00,vanprod-2.3,2013-04-27 23:48:00,
2013-04-27 18:53:00,72.7,35.9,29.89,SSW,193,4.0,5.0,26,0.00,,,0.00,vanprod-2.3,2013-04-27 23:53:00,
2013-04-27 18:58:00,72.3,34.5,29.89,SSW,193,4.0,6.0,25,0.00,,,0.00,vanprod-2.3,2013-04-27 23:58:00,
2013-04-27 19:03:00,72.2,35.4,29.89,SSW,193,2.0,3.0,26,0.00,,,0.00,vanprod-2.3,2013-04-28 00:03:00,
2013-04-27 19:08:00,72.0,35.3,29.89,SSW,193,2.0,4.0,26,0.00,,,0.00,vanprod-2.3,2013-04-28 00:08:00,
2013-04-27 19:13:00,71.6,35.9,29.89,SSW,193,2.0,0.0,27,0.00,,,0.00,vanprod-2.3,2013-04-28 00:13:00,
2013-04-27 19:18:00,71.1,35.5,29.89,SSW,193,2.0,2.0,27,0.00,,,0.00,vanprod-2.3,2013-04-28 00:18:00,
2013-04-27 19:23:00,70.6,35.9,29.89,SSW,193,1.0,1.0,28,0.00,,,0.00,vanprod-2.3,2013-04-28 00:23:00,
2013-04-27 19:28:00,70.3,35.7,29.89,SSW,193,1.0,1.0,28,0.00,,,0.00,vanprod-2.3,2013-04-28 00:28:00,
2013-04-27 19:33:00,69.9,37.1,29.89,SSW,193,1.0,1.0,30,0.00,,,0.00,vanprod-2.3,2013-04-28 00:33:00,
2013-04-27 19:38:00,69.8,36.1,29.89,SSW,193,2.0,3.0,29,0.00,,,0.00,vanprod-2.3,2013-04-28 00:38:00,
2013-04-27 19:43:00,69.4,36.7,29.88,SSW,193,2.0,6.0,30,0.00,,,0.00,vanprod-2.3,2013-04-28 00:43:00,
2013-04-27 19:48:00,69.3,36.6,29.88,SSW,193,2.0,2.0,30,0.00,,,0.00,vanprod-2.3,2013-04-28 00:48:00,
2013-04-27 19:53:00,68.9,36.2,29.88,SSW,193,2.0,2.0,30,0.00,,,0.00,vanprod-2.3,2013-04-28 00:53:00,
2013-04-27 19:58:00,68.6,36.0,29.88,SSW,193,1.0,0.0,30,0.00,,,0.00,vanprod-2.3,2013-04-28 00:58:00,
2013-04-27 20:03:00,68.3,35.7,29.88,SSW,193,1.0,3.0,30,0.00,,,0.00,vanprod-2.3,2013-04-28 01:03:00,
2013-04-27 20:08:00,67.9,36.2,29.88,SSW,193,2.0,3.0,31,0.00,,,0.00,vanprod-2.3,2013-04-28 01:08:00,
2013-04-27 20:13:00,67.6,36.7,29.88,SSW,193,0.0,2.0,32,0.00,,,0.00,vanprod-2.3,2013-04-28 01:13:00,
2013-04-27 20:18:00,67.3,35.7,29.88,SSW,193,0.0,2.0,31,0.00,,,0.00,vanprod-2.3,2013-04-28 01:18:00,
2013-04-27 20:23:00,66.6,35.0,29.88,SSW,193,1.0,1.0,31,0.00,,,0.00,vanprod-2.3,2013-04-28 01:23:00,
2013-04-27 20:28:00,66.3,35.6,29.88,SSW,193,0.0,0.0,32,0.00,,,0.00,vanprod-2.3,2013-04-28 01:28:00,
2013-04-27 20:33:00,65.9,35.2,29.88,SSW,193,0.0,0.0,32,0.00,,,0.00,vanprod-2.3,2013-04-28 01:33:00,
2013-04-27 20:38:00,65.5,35.7,29.88,SSW,193,0.0,0.0,33,0.00,,,0.00,vanprod-2.3,2013-04-28 01:38:00,
2013-04-27 20:43:00,64.8,35.8,29.87,SSW,193,0.0,0.0,34,0.00,,,0.00,vanprod-2.3,2013-04-28 01:43:00,
2013-04-27 20:48:00,64.3,36.1,29.87,SSW,193,0.0,2.0,35,0.00,,,0.00,vanprod-2.3,2013-04-28 01:48:00,
2013-04-27 20:53:00,64.2,36.0,29.87,SSW,193,0.0,0.0,35,0.00,,,0.00,vanprod-2.3,2013-04-28 01:53:00,
2013-04-27 20:58:00,64.2,36.0,29.87,SSW,193,0.0,1.0,35,0.00,,,0.00,vanprod-2.3,2013-04-28 01:58:00,
2013-04-27 21:03:00,64.2,36.0,29.87,SSW,193,2.0,5.0,35,0.00,,,0.00,vanprod-2.3,2013-04-28 02:03:00,
2013-04-27 21:08:00,64.2,36.0,29.87,SSW,193,1.0,3.0,35,0.00,,,0.00,vanprod-2.3,2013-04-28 02:08:00,
2013-04-27 21:13:00,64.2,36.0,29.87,SSW,193,0.0,0.0,35,0.00,,,0.00,vanprod-2.3,2013-04-28 02:13:00,
2013-04-27 21:18:00,64.0,35.8,29.87,SSW,193,1.0,1.0,35,0.00,,,0.00,vanprod-2.3,2013-04-28 02:18:00,
2013-04-27 21:23:00,64.0,35.8,29.86,SSW,193,2.0,0.0,35,0.00,,,0.00,vanprod-2.3,2013-04-28 02:23:00,
2013-04-27 21:28:00,63.8,36.4,29.86,SSW,193,0.0,2.0,36,0.00,,,0.00,vanprod-2.3,2013-04-28 02:28:00,
2013-04-27 21:33:00,63.8,36.4,29.86,SSW,193,2.0,2.0,36,0.00,,,0.00,vanprod-2.3,2013-04-28 02:33:00,
2013-04-27 21:38:00,63.7,36.3,29.86,SSW,193,2.0,2.0,36,0.00,,,0.00,vanprod-2.3,2013-04-28 02:38:00,
2013-04-27 21:43:00,63.4,36.7,29.86,SSW,193,1.0,2.0,37,0.00,,,0.00,vanprod-2.3,2013-04-28 02:43:00,
2013-04-27 21:48:00,63.2,36.5,29.86,SSW,193,0.0,2.0,37,0.00,,,0.00,vanprod-2.3,2013-04-28 02:48:00,
2013-04-27 21:53:00,62.7,36.7,29.85,SSW,193,1.0,0.0,38,0.00,,,0.00,vanprod-2.3,2013-04-28 02:53:00,
2013-04-27 21:58:00,62.4,36.5,29.85,SSW,193,0.0,0.0,38,0.00,,,0.00,vanprod-2.3,2013-04-28 02:58:00,
2013-04-27 22:03:00,62.1,36.2,29.85,SSW,193,0.0,2.0,38,0.00,,,0.00,vanprod-2.3,2013-04-28 03:03:00,
2013-04-27 22:08:00,61.9,36.0,29.85,SSW,193,1.0,1.0,38,0.00,,,0.00,vanprod-2.3,2013-04-28 03:08:00,
2013-04-27 22:13:00,61.8,35.9,29.84,SSW,193,1.0,4.0,38,0.00,,,0.00,vanprod-2.3,2013-04-28 03:13:00,
2013-04-27 22:18:00,61.6,35.8,29.84,SSW,193,2.0,5.0,38,0.00,,,0.00,vanprod-2.3,2013-04-28 03:18:00,
2013-04-27 22:23:00,61.5,36.3,29.84,SSW,193,0.0,2.0,39,0.00,,,0.00,vanprod-2.3,2013-04-28 03:23:00,
2013-04-27 22:28:00,61.3,36.2,29.84,SSW,193,2.0,3.0,39,0.00,,,0.00,vanprod-2.3,2013-04-28 03:28:00,
2013-04-27 22:33:00,61.1,36.0,29.84,SSW,193,1.0,0.0,39,0.00,,,0.00,vanprod-2.3,2013-04-28 03:33:00,
2013-04-27 22:38:00,60.8,35.7,29.84,SSW,193,1.0,4.0,39,0.00,,,0.00,vanprod-2.3,2013-04-28 03:38:00,
2013-04-27 22:43:00,60.7,35.6,29.84,SSW,193,2.0,3.0,39,0.00,,,0.00,vanprod-2.3,2013-04-28 03:43:00,
2013-04-27 22:48:00,60.5,35.4,29.84,SSW,193,1.0,0.0,39,0.00,,,0.00,vanprod-2.3,2013-04-28 03:48:00,
2013-04-27 22:53:00,60.4,36.0,29.84,SSW,193,2.0,5.0,40,0.00,,,0.00,vanprod-2.3,2013-04-28 03:53:00,
2013-04-27 22:58:00,60.0,36.3,29.84,SSW,193,1.0,2.0,41,0.00,,,0.00,vanprod-2.3,2013-04-28 03:58:00,
2013-04-27 23:01:00,59.9,36.2,29.84,SSW,193,2.0,4.0,41,0.00,,,0.00,vanprod-2.3,2013-04-28 04:01:00,
2013-04-27 23:06:00,59.9,36.2,29.84,SSW,193,3.0,5.0,41,0.00,,,0.00,vanprod-2.3,2013-04-28 04:06:00,
2013-04-27 23:11:00,59.7,36.0,29.84,South,188,3.0,5.0,41,0.00,,,0.00,vanprod-2.3,2013-04-28 04:11:00,
2013-04-27 23:16:00,59.4,36.3,29.84,South,188,3.0,3.0,42,0.00,,,0.00,vanprod-2.3,2013-04-28 04:16:00,
2013-04-27 23:21:00,59.1,36.1,29.84,South,188,3.0,6.0,42,0.00,,,0.00,vanprod-2.3,2013-04-28 04:21:00,
2013-04-27 23:26:00,58.8,36.4,29.84,South,188,2.0,2.0,43,0.00,,,0.00,vanprod-2.3,2013-04-28 04:26:00,
2013-04-27 23:31:00,58.4,36.6,29.84,South,188,2.0,5.0,44,0.00,,,0.00,vanprod-2.3,2013-04-28 04:31:00,
2013-04-27 23:36:00,58.2,36.4,29.83,South,188,1.0,0.0,44,0.00,,,0.00,vanprod-2.3,2013-04-28 04:36:00,
2013-04-27 23:41:00,58.1,36.9,29.83,South,187,2.0,6.0,45,0.00,,,0.00,vanprod-2.3,2013-04-28 04:41:00,
2013-04-27 23:46:00,58.1,37.4,29.83,South,186,4.0,4.0,46,0.00,,,0.00,vanprod-2.3,2013-04-28 04:46:00,
2013-04-27 23:51:00,57.9,37.3,29.83,South,186,3.0,6.0,46,0.00,,,0.00,vanprod-2.3,2013-04-28 04:51:00,
2013-04-27 23:56:00,57.9,38.3,29.83,South,186,4.0,4.0,48,0.00,,,0.00,vanprod-2.3,2013-04-28 04:56:00,